DELTA 1 DEB, 12539

Orbit data source: Space-Track

DELTA 1 DEB, 12539 is space debris in SSO originally from a launch on Thu, 29 Jul 1976 UTC launched from the Air Force Western Test Range (AFWTR). Debris objects in space refer to the collection of defunct objects orbiting the Earth. Examples of debris include non-operational satellites, rocket bodies, and fragments generated from explosions, collisions, or faulty payload assembly.

Loading next visibility...
Identifier
12539, 1976-077DU
Orbit
SSO
Country
Flag of USUS
Related business
Manufacturer
Unknown
Mission
Spacecraft
Bus & Motor
Unknown
Mass
Unknown
Launch date (UTC)
1976-07-29 (50 years ago)
Launch vehicle
Unknown
Launch site
Air Force Western Test Range (AFWTR)
Object type
Payload
Rocket body
Debris
Shape & HBR
Unknown shape, 0.1 m
Radar Cross Section
Small (<0.1 m²)

Expand to show TLE details & history
Last TLE update: 20 hours ago

TLE from 20 hours ago
0 DELTA 1 DEB
1 12539U 76077DU  26072.70202603  .00002302  00000-0  80533-2 0  9992
2 12539 101.7037 345.5394 0358464 123.2518 270.1853 12.78490515117283
Epoch: 2026-03-13T16:50Z
TLE epoch observation values (Epoch: 2026-03-13T16:50:55.048Z)
Latitude
28.70993°
Longitude
-85.00617°
Altitude
1,359.866 km
Speed
7.177 km/s
True Right ascension
22h 36m 13s
True Declination
28° 34' 36"
Sunlit
Object was in daylight at epoch
Visualization orbit readout
Latitude
Unknown
Longitude
Unknown
Altitude
Unknown
Speed
Unknown
Apparent Right ascension
Unknown
Apparent Declination
Unknown
Sunlit
N/A
Visualization observer readout
Local Sidereal Time
17:01:35
Azimuth
Unknown
Elevation
Unknown
Doppler factor
Unknown
Orbital elements
Apogee altitude
1,621.896 km
Perigee altitude
1,068.199 km
Semi-major axis
7,723.184 km
Eccentricity
0.03585
Inclination
101.7037°
RAAN
345.5394°
Arg. of periapsis
123.2518°
True anomaly
266.08055°
Mean anomaly
270.1853°
Eccentric anomaly
268.13254°
Mean motion
3.19778 °/min
Orbital period
112.58 mins
BSTAR
0.0080533
Loading maneuver chart data...
Computing Atmospheric mass density...
Loading historical data...
Loading historical data...
Loading historical data...
Loading historical data...
Loading historical data...
Loading historical data...
Loading historical data...

Documentation

Showing up to 5 results
|